Regional Weather Roundup
Issued by NWS Jackson, KY

Home | Current Version | Previous Version | Text Only | Print | Product List | Glossary On
Versions: 1 2 3 4 5 6 7 8 9 10 11 12 13 14 15 16 17 18 19 20 21 22 23 24 25 26 27 28 29 30 31 32 33 34 35 36 37 38 39 40 41 42 43 44 45 46 47 48 49 50
000
ASUS43 KJKL 162310
RWRJKL

EAST KENTUCKY HOURLY WEATHER ROUNDUP
NATIONAL WEATHER SERVICE JACKSON KY
600 PM EST SAT DEC 16 2017

NOTE: "FAIR" INDICATES FEW OR NO CLOUDS BELOW 12,000 FEET WITH
NO SIGNIFICANT WEATHER AND/OR OBSTRUCTIONS TO VISIBILITY.

* THESE REPORTS ARE NOT UNDER NWS QUALITY CONTROL AND MAY NOT
  REPORT WEATHER SUCH AS PRECIPITATION AND FOG.

KYZ079-080-083-085-087-088-110-112-115-119-120-170000
...EASTERN KENTUCKY...

CITY           SKY/WX    TMP DP  RH WIND       PRES   REMARKS
JACKSON        CLEAR     44  26  49 VRB3      30.14S
LONDON         CLEAR     44  26  49 SW6       30.17R
SOMERSET*      CLEAR     41  28  60 W7        30.20R
MONTICELLO*    PTCLDY    36  27  69 VRB3      30.20R
WILLIAMSBURG*  CLEAR     43  27  52 SE6       30.19R
MIDDLESBORO*   CLOUDY    41  28  59 SW3       30.22R
HARLAN APT*    CLEAR     41  27  56 CALM      30.18S
PIKE CO APT*     N/A     45  26  47 S5        30.15R
BIG SANDY APT* CLEAR     46  26  45 SW3       30.15R
MOREHEAD APT*  CLEAR     46  27  46 SW10      30.15R
$$

KYZ035-036-041-042-044-050-067-078-099-170000
...CENTRAL KENTUCKY...

CITY           SKY/WX    TMP DP  RH WIND       PRES   REMARKS
MT STERLING*   CLEAR     45  30  57 SW7       30.16R
FLEMING/MASON* CLEAR     41  28  59 SW7       30.14R
DANVILLE*      CLEAR     41  30  65 SW5       30.17R
LEXINGTON      CLEAR     43  28  55 S10       30.13R
FRANKFORT      CLEAR     45  26  47 S6        30.12R
LOUISVILLE     MOCLDY    49  29  46 S9        30.12R
LEBANON*         N/A     45  28  53 S10       30.16R
GLASGOW*       CLOUDY    42  29  59 S3        30.17R
BOWLING GREEN  CLEAR     46  30  53 S6        30.17R
$$

KYZ091>093-OHZ055-061-077-WVZ005-015-034-035-042-170000
...SOUTHERN OHIO/WEST VIRGINIA...

CITY           SKY/WX    TMP DP  RH WIND       PRES   REMARKS
COVINGTON      PTCLDY    45  28  51 S10       30.08R
COLUMBUS       PTCLDY    44  28  53 S6        30.05R
DAYTON         CLEAR     43  27  53 SW14      30.03R
WILMINGTON     CLEAR     40  27  59 SW10      30.05R WCI  33
HUNTINGTON     CLEAR     46  25  43 SW3       30.13R
CHARLESTON     CLEAR     44  24  45 S7        30.12R
PINEVILLE*     CLEAR     33  27  78 MISG      30.20R
BECKLEY        CLEAR     38  22  52 SW6       30.12R WCI  33
BLUEFIELD      CLEAR     36  20  52 W7        30.14R WCI  30
LOGAN CO APT*    N/A     45  25  45 CALM      30.13R
$$

VAZ002-007-008-TNZ017-027-036-066-071-170000
...SOUTHWEST VIRGINIA/EAST TENNESSEE...

CITY           SKY/WX    TMP DP  RH WIND       PRES   REMARKS
WISE*          CLEAR     36  27  69 CALM      30.16S
JONESVILLE*      N/A     37  27  65 CALM      30.23R
ABINGDON*      CLOUDY    38  26  62 W3        30.18S
BRISTOL        CLOUDY    40  27  59 SW6       30.21R
MORRISTOWN*    CLEAR     41  27  56 CALM      30.21R
SEVIERVILLE*   CLEAR     37  28  70 CALM      30.21S
KNOXVILLE      CLOUDY    42  31  64 W5        30.21R
LAFOLLETTE*    CLEAR     39  28  65 CALM      30.24R
OAK RIDGE      CLOUDY    44  29  55 SW3       30.23R
CROSSVILLE     CLOUDY    40  27  59 S3        30.19R
NASHVILLE      CLOUDY    46  29  51 S8        30.19R
$$

...KEY TO REMARKS...
VSB - VISIBILITY IN MILES
WCI - WIND CHILL INDEX
HX  - HEAT INDEX

$$



USA.gov is the U.S. government's official web portal to all federal, state and local government web resources and services.